Location: Champignolles
(47.0543°N, 4.5663°E)
Time: 16:16:08
(UTC+00:00)

Meteor 1-10 Rocket - Pass Details

Date: 30 November 2020
Orbit: 836 x 910 km, 81.3° (Epoch: 27 January)

Event Time Altitude Azimuth Distance (km) Brightness Sun altitude
Rises 18:23:01 0° 188° (S) 3,429 7.5 -24.5°
Reaches altitude 10° 18:25:27 10° 188° (S) 2,486 6.8 -24.9°
Maximum altitude 18:31:06 87° 101° (E) 856 4.1 -25.9°
Enters shadow 18:32:52 46° 13° (NNE) 1,125 4.6 -26.2°
